| time (UTC) | temp F | wind direction | speed MPH | gust MPH | rain 1hr in | rain 24hr in | rain mn in | humidity % | barometer mb |
| 20260831033135 | 72 | 22 | 1.0 | 5.0 | 0.00 | 0.00 | 0.00 | 73 | 1016.1 |
| 20260831032142 | 72 | 82 | 0.0 | 2.0 | 0.00 | 0.00 | 0.00 | 72 | 1016.2 |
| 20260831031129 | 72 | 9 | 1.0 | 4.0 | 0.00 | 0.00 | 0.00 | 72 | 1016.2 |
| 20260831030141 | 72 | 216 | 1.0 | 5.0 | 0.00 | 0.00 | 0.00 | 73 | 1016.2 |
| 20260831025128 | 72 | 297 | 0.0 | 3.0 | 0.00 | 0.00 | 0.00 | 72 | 1016.1 |
| 20260831024155 | 72 | 302 | 0.0 | 8.0 | 0.00 | 0.00 | 0.00 | 72 | 1016.1 |
| 20260831023142 | 72 | 59 | 0.0 | 2.0 | 0.00 | 0.00 | 0.00 | 72 | 1016.2 |
| 20260831022153 | 72 | 28 | 0.0 | 4.0 | 0.00 | 0.00 | 0.00 | 72 | 1016.3 |
| 20260831021200 | 71 | 58 | 1.0 | 3.0 | 0.00 | 0.00 | 0.00 | 74 | 1016.2 |
| 20260831020125 | 71 | 208 | 0.0 | 4.0 | 0.00 | 0.00 | 0.00 | 76 | 1016.3 |
| 20260831015133 | 71 | 22 | 0.0 | 1.0 | 0.00 | 0.00 | 0.00 | 76 | 1016.2 |
| 20260831014201 | 71 | 22 | 1.0 | 4.0 | 0.00 | 0.00 | 0.00 | 76 | 1016.2 |
| 20260831013150 | 72 | 47 | 0.0 | 2.0 | 0.00 | 0.00 | 0.00 | 76 | 1016.3 |
| 20260831012157 | 72 | 46 | 0.0 | 3.0 | 0.00 | 0.00 | 0.00 | 75 | 1016.3 |
| 20260831011140 | 72 | 239 | 0.0 | 3.0 | 0.00 | 0.00 | 0.00 | 75 | 1016.4 |
| 20260831010127 | 72 | 107 | 0.0 | 3.0 | 0.00 | 0.00 | 0.00 | 74 | 1016.4 |
| 20260831005141 | 72 | 61 | 0.0 | 3.0 | 0.00 | 0.00 | 0.00 | 75 | 1016.4 |
| 20260831004143 | 73 | 113 | 0.0 | 1.0 | 0.00 | 0.00 | 0.00 | 74 | 1016.3 |
| 20260831003130 | 73 | 113 | 0.0 | 4.0 | 0.00 | 0.00 | 0.00 | 71 | 1016.3 |
| 20260831002138 | 73 | 138 | 1.0 | 3.0 | 0.00 | 0.00 | 0.00 | 72 | 1016.4 |
| 20260831001150 | 72 | 164 | 1.0 | 3.0 | 0.00 | 0.00 | 0.00 | 73 | 1016.5 |
| 20260831000135 | 72 | 271 | 0.0 | 2.0 | 0.00 | 0.00 | 0.00 | 74 | 1016.4 |
| 20260830235143 | 72 | 271 | 0.0 | 3.0 | 0.00 | 0.00 | 0.00 | 74 | 1016.5 |
| 20260830234149 | 73 | 11 | 0.0 | 2.0 | 0.00 | 0.00 | 0.00 | 73 | 1016.6 |
| 20260830233135 | 73 | 32 | 0.0 | 1.0 | 0.00 | 0.00 | 0.00 | 72 | 1016.6 |
| 20260830232126 | 72 | 32 | 0.0 | 3.0 | 0.00 | 0.00 | 0.00 | 73 | 1016.7 |
| 20260830231133 | 72 | 231 | 0.0 | 1.0 | 0.00 | 0.00 | 0.00 | 74 | 1016.7 |
| 20260830230141 | 72 | 231 | 0.0 | 2.0 | 0.00 | 0.00 | 0.00 | 74 | 1016.7 |
| 20260830225130 | 73 | 231 | 0.0 | 1.0 | 0.00 | 0.00 | 0.00 | 73 | 1016.9 |
| 20260830224114 | 73 | 231 | 0.0 | 2.0 | 0.00 | 0.00 | 0.00 | 71 | 1016.7 |
| 20260830223121 | 74 | 231 | 0.0 | 3.0 | 0.00 | 0.00 | 0.00 | 70 | 1016.6 |
| 20260830222128 | 74 | 196 | 0.0 | 4.0 | 0.00 | 0.00 | 0.00 | 70 | 1016.7 |
| 20260830221138 | 74 | 89 | 0.0 | 4.0 | 0.00 | 0.00 | 0.00 | 70 | 1016.7 |
| 20260830220125 | 74 | 157 | 1.0 | 3.0 | 0.00 | 0.00 | 0.00 | 69 | 1016.7 |
| 20260830215128 | 74 | 15 | 0.0 | 2.0 | 0.00 | 0.00 | 0.00 | 69 | 1016.6 |
| 20260830214132 | 74 | 330 | 1.0 | 4.0 | 0.00 | 0.00 | 0.00 | 70 | 1016.6 |
| 20260830213131 | 74 | 5 | 1.0 | 5.0 | 0.00 | 0.00 | 0.00 | 70 | 1016.5 |
| 20260830212118 | 73 | 12 | 1.0 | 5.0 | 0.00 | 0.00 | 0.00 | 71 | 1016.4 |
| 20260830211118 | 73 | 198 | 0.0 | 1.0 | 0.00 | 0.00 | 0.00 | 75 | 1016.4 |
| 20260830210121 | 73 | 198 | 0.0 | 1.0 | 0.00 | 0.00 | 0.00 | 74 | 1016.4 |
| 20260830205126 | 73 | 198 | 0.0 | 1.0 | 0.00 | 0.00 | 0.00 | 75 | 1016.3 |
| 20260830204134 | 73 | 198 | 0.0 | 1.0 | 0.00 | 0.00 | 0.00 | 75 | 1016.3 |
| 20260830203118 | 73 | 198 | 1.0 | 3.0 | 0.00 | 0.00 | 0.00 | 75 | 1016.3 |
| 20260830202121 | 73 | 198 | 0.0 | 2.0 | 0.00 | 0.00 | 0.00 | 74 | 1016.3 |
| 20260830201126 | 73 | 198 | 0.0 | 2.0 | 0.00 | 0.00 | 0.00 | 75 | 1016.2 |
| 20260830200132 | 73 | 198 | 0.0 | 2.0 | 0.00 | 0.00 | 0.00 | 74 | 1016.3 |
| 20260830195116 | 74 | 190 | 2.0 | 6.0 | 0.00 | 0.00 | 0.00 | 71 | 1016.2 |
| 20260830194122 | 74 | 355 | 1.0 | 3.0 | 0.00 | 0.00 | 0.00 | 70 | 1016.2 |
| 20260830193127 | 74 | 201 | 0.0 | 2.0 | 0.00 | 0.00 | 0.00 | 72 | 1016.2 |
| 20260830192117 | 73 | 201 | 0.0 | 3.0 | 0.00 | 0.00 | 0.00 | 75 | 1016.1 |
| 20260830191142 | 73 | 201 | 0.0 | 0.0 | 0.00 | 0.00 | 0.00 | 74 | 1016.0 |
| 20260830190123 | 74 | 201 | 0.0 | 1.0 | 0.00 | 0.00 | 0.00 | 73 | 1015.9 |
| 20260830185130 | 74 | 201 | 0.0 | 1.0 | 0.00 | 0.00 | 0.00 | 71 | 1015.9 |
| 20260830184119 | 75 | 201 | 0.0 | 1.0 | 0.00 | 0.00 | 0.00 | 70 | 1015.8 |
| 20260830183122 | 75 | 201 | 0.0 | 0.0 | 0.00 | 0.00 | 0.00 | 68 | 1015.8 |
| 20260830182126 | 75 | 201 | 0.0 | 2.0 | 0.00 | 0.00 | 0.00 | 70 | 1015.6 |
| 20260830181131 | 76 | 201 | 0.0 | 2.0 | 0.00 | 0.00 | 0.00 | 69 | 1015.5 |
| 20260830180121 | 76 | 201 | 0.0 | 2.0 | 0.00 | 0.00 | 0.00 | 68 | 1015.4 |
| 20260830175129 | 77 | 201 | 1.0 | 2.0 | 0.00 | 0.00 | 0.00 | 67 | 1015.5 |
| 20260830174151 | 78 | 201 | 0.0 | 2.0 | 0.00 | 0.00 | 0.00 | 66 | 1015.5 |
| 20260830173116 | 79 | 201 | 1.0 | 2.0 | 0.00 | 0.00 | 0.00 | 65 | 1015.4 |
| 20260830172124 | 80 | 201 | 0.0 | 1.0 | 0.00 | 0.00 | 0.00 | 62 | 1015.4 |
| 20260830171125 | 81 | 201 | 0.0 | 3.0 | 0.00 | 0.00 | 0.00 | 59 | 1015.3 |
| 20260830170131 | 82 | 171 | 0.0 | 1.0 | 0.00 | 0.00 | 0.00 | 53 | 1015.3 |
| 20260830165117 | 83 | 171 | 0.0 | 1.0 | 0.00 | 0.00 | 0.00 | 53 | 1015.3 |
| 20260830164126 | 83 | 178 | 0.0 | 2.0 | 0.00 | 0.00 | 0.00 | 51 | 1015.3 |
| 20260830163141 | 84 | 98 | 0.0 | 3.0 | 0.00 | 0.00 | 0.00 | 51 | 1015.3 |
| 20260830162141 | 84 | 96 | 0.0 | 2.0 | 0.00 | 0.00 | 0.00 | 52 | 1015.3 |
| 20260830161123 | 84 | 96 | 0.0 | 4.0 | 0.00 | 0.00 | 0.00 | 51 | 1015.4 |
| 20260830160128 | 84 | 110 | 1.0 | 3.0 | 0.00 | 0.00 | 0.00 | 52 | 1015.4 |
| 20260830155119 | 84 | 198 | 0.0 | 5.0 | 0.00 | 0.00 | 0.00 | 52 | 1015.4 |
| 20260830154124 | 84 | 113 | 1.0 | 3.0 | 0.00 | 0.00 | 0.00 | 52 | 1015.5 |
| 20260830153133 | 84 | 76 | 1.0 | 2.0 | 0.00 | 0.00 | 0.00 | 53 | 1015.5 |
| 20260830152119 | 84 | 76 | 1.0 | 4.0 | 0.00 | 0.00 | 0.00 | 52 | 1015.5 |
| 20260830151127 | 84 | 96 | 1.0 | 3.0 | 0.00 | 0.00 | 0.00 | 50 | 1015.6 |
| 20260830150131 | 84 | 68 | 1.0 | 4.0 | 0.00 | 0.00 | 0.00 | 51 | 1015.6 |
| 20260830145117 | 84 | 71 | 0.0 | 3.0 | 0.00 | 0.00 | 0.00 | 50 | 1015.7 |
| 20260830144120 | 85 | 61 | 1.0 | 4.0 | 0.00 | 0.00 | 0.00 | 51 | 1015.6 |
| 20260830143127 | 85 | 77 | 1.0 | 7.0 | 0.00 | 0.00 | 0.00 | 49 | 1015.8 |
| 20260830142115 | 85 | 53 | 1.0 | 5.0 | 0.00 | 0.00 | 0.00 | 50 | 1015.7 |
| 20260830141121 | 85 | 192 | 1.0 | 4.0 | 0.00 | 0.00 | 0.00 | 51 | 1015.8 |
| 20260830140149 | 85 | 215 | 2.0 | 8.0 | 0.00 | 0.00 | 0.00 | 49 | 1015.9 |
| 20260830135154 | 85 | 205 | 2.0 | 5.0 | 0.00 | 0.00 | 0.00 | 51 | 1015.9 |
| 20260830134137 | 84 | 139 | 1.0 | 5.0 | 0.00 | 0.00 | 0.00 | 51 | 1016.1 |
| 20260830133123 | 84 | 143 | 2.0 | 5.0 | 0.00 | 0.00 | 0.00 | 50 | 1016.2 |
| 20260830132149 | 85 | 65 | 1.0 | 4.0 | 0.00 | 0.00 | 0.00 | 50 | 1016.2 |
| 20260830131135 | 84 | 121 | 2.0 | 5.0 | 0.00 | 0.00 | 0.00 | 50 | 1016.2 |
| 20260830130124 | 84 | 61 | 2.0 | 7.0 | 0.00 | 0.00 | 0.00 | 51 | 1016.3 |
| 20260830125127 | 84 | 155 | 1.0 | 5.0 | 0.00 | 0.00 | 0.00 | 53 | 1016.4 |
| 20260830124130 | 84 | 66 | 2.0 | 3.0 | 0.00 | 0.00 | 0.00 | 53 | 1016.5 |
| 20260830123136 | 84 | 90 | 1.0 | 5.0 | 0.00 | 0.00 | 0.00 | 57 | 1016.5 |
| 20260830122123 | 83 | 182 | 3.0 | 5.0 | 0.00 | 0.00 | 0.00 | 53 | 1016.5 |
| 20260830121126 | 83 | 76 | 3.0 | 6.0 | 0.00 | 0.00 | 0.00 | 54 | 1016.6 |
| 20260830120134 | 84 | 71 | 1.0 | 6.0 | 0.00 | 0.00 | 0.00 | 53 | 1016.6 |
| 20260830115119 | 84 | 60 | 2.0 | 5.0 | 0.00 | 0.00 | 0.00 | 54 | 1016.6 |
| 20260830114129 | 83 | 103 | 1.0 | 4.0 | 0.00 | 0.00 | 0.00 | 56 | 1016.6 |
| 20260830113135 | 83 | 80 | 0.0 | 4.0 | 0.00 | 0.00 | 0.00 | 55 | 1016.7 |
| 20260830112123 | 83 | 89 | 1.0 | 6.0 | 0.00 | 0.00 | 0.00 | 57 | 1016.8 |
| 20260830111129 | 82 | 119 | 2.0 | 5.0 | 0.00 | 0.00 | 0.00 | 53 | 1016.9 |
| 20260830110139 | 82 | 122 | 1.0 | 5.0 | 0.00 | 0.00 | 0.00 | 54 | 1016.9 |
| 20260830105124 | 82 | 127 | 1.0 | 4.0 | 0.00 | 0.00 | 0.00 | 53 | 1017.0 |
| 20260830104152 | 82 | 111 | 1.0 | 3.0 | 0.00 | 0.00 | 0.00 | 60 | 1017.0 |
| 20260830103131 | 81 | 112 | 0.0 | 4.0 | 0.00 | 0.00 | 0.00 | 57 | 1017.2 |
| 20260830102117 | 81 | 43 | 0.0 | 4.0 | 0.00 | 0.00 | 0.00 | 57 | 1017.3 |
| 20260830101146 | 81 | 147 | 1.0 | 4.0 | 0.00 | 0.00 | 0.00 | 57 | 1017.4 |
| 20260830100133 | 81 | 108 | 0.0 | 4.0 | 0.00 | 0.00 | 0.00 | 55 | 1017.4 |
| 20260830095118 | 80 | 55 | 0.0 | 2.0 | 0.00 | 0.00 | 0.00 | 57 | 1017.6 |
| 20260830094146 | 80 | 55 | 2.0 | 4.0 | 0.00 | 0.00 | 0.00 | 58 | 1017.6 |
| 20260830093134 | 79 | 92 | 1.0 | 4.0 | 0.00 | 0.00 | 0.00 | 60 | 1017.6 |
| 20260830092135 | 79 | 41 | 1.0 | 5.0 | 0.00 | 0.00 | 0.00 | 59 | 1017.6 |
| 20260830091142 | 79 | 11 | 1.0 | 5.0 | 0.00 | 0.00 | 0.00 | 61 | 1017.7 |
| 20260830090129 | 78 | 65 | 1.0 | 4.0 | 0.00 | 0.00 | 0.00 | 61 | 1017.7 |
| 20260830085118 | 78 | 25 | 0.0 | 3.0 | 0.00 | 0.00 | 0.00 | 60 | 1017.7 |
| 20260830084146 | 77 | 24 | 2.0 | 4.0 | 0.00 | 0.00 | 0.00 | 60 | 1017.6 |
| 20260830083131 | 77 | 111 | 1.0 | 3.0 | 0.00 | 0.00 | 0.00 | 59 | 1017.6 |
| 20260830082118 | 76 | 22 | 0.0 | 3.0 | 0.00 | 0.00 | 0.00 | 60 | 1017.6 |
| 20260830081125 | 76 | 9 | 1.0 | 4.0 | 0.00 | 0.00 | 0.00 | 59 | 1017.6 |
| 20260830080137 | 75 | 19 | 1.0 | 4.0 | 0.00 | 0.00 | 0.00 | 63 | 1017.6 |
| 20260830075122 | 75 | 45 | 1.0 | 4.0 | 0.00 | 0.00 | 0.00 | 63 | 1017.5 |
| 20260830074129 | 75 | 47 | 3.0 | 5.0 | 0.00 | 0.00 | 0.00 | 64 | 1017.4 |
| 20260830073115 | 74 | 34 | 2.0 | 5.0 | 0.00 | 0.00 | 0.00 | 65 | 1017.5 |
| 20260830072126 | 73 | 49 | 1.0 | 3.0 | 0.00 | 0.00 | 0.00 | 69 | 1017.4 |
| 20260830071133 | 72 | 49 | 3.0 | 4.0 | 0.00 | 0.00 | 0.00 | 71 | 1017.3 |
| 20260830070117 | 71 | 271 | 0.0 | 3.0 | 0.00 | 0.00 | 0.00 | 75 | 1017.2 |
| 20260830065123 | 70 | 36 | 1.0 | 4.0 | 0.00 | 0.00 | 0.00 | 75 | 1017.2 |
| 20260830064134 | 70 | 45 | 1.0 | 3.0 | 0.00 | 0.00 | 0.00 | 75 | 1017.2 |
| 20260830063119 | 69 | 42 | 0.0 | 2.0 | 0.00 | 0.00 | 0.00 | 76 | 1017.1 |
| 20260830062127 | 69 | 42 | 0.0 | 2.0 | 0.00 | 0.00 | 0.00 | 76 | 1017.1 |
| 20260830061119 | 68 | 42 | 2.0 | 4.0 | 0.00 | 0.00 | 0.00 | 76 | 1017.2 |
| 20260830060125 | 68 | 129 | 0.0 | 3.0 | 0.00 | 0.00 | 0.00 | 78 | 1017.1 |
| 20260830055152 | 67 | 192 | 1.0 | 2.0 | 0.00 | 0.00 | 0.00 | 75 | 1017.0 |
| 20260830054117 | 66 | 205 | 0.0 | 4.0 | 0.00 | 0.00 | 0.00 | 78 | 1016.9 |
| 20260830053124 | 66 | 313 | 0.0 | 0.0 | 0.00 | 0.00 | 0.00 | 81 | 1016.7 |
| 20260830052115 | 66 | 313 | 0.0 | 1.0 | 0.00 | 0.00 | 0.00 | 81 | 1016.7 |
| 20260830051123 | 66 | 313 | 0.0 | 1.0 | 0.00 | 0.00 | 0.00 | 80 | 1016.6 |
| 20260830050130 | 66 | 313 | 0.0 | 1.0 | 0.00 | 0.00 | 0.00 | 79 | 1016.5 |
| 20260830045121 | 66 | 313 | 0.0 | 1.0 | 0.00 | 0.00 | 0.00 | 79 | 1016.4 |
| 20260830044129 | 66 | 313 | 0.0 | 4.0 | 0.00 | 0.00 | 0.00 | 78 | 1016.3 |
| 20260830043135 | 67 | 278 | 0.0 | 3.0 | 0.00 | 0.00 | 0.00 | 78 | 1016.3 |
| 20260830042121 | 67 | 40 | 0.0 | 4.0 | 0.00 | 0.00 | 0.00 | 77 | 1016.2 |
| 20260830041150 | 67 | 40 | 1.0 | 3.0 | 0.00 | 0.00 | 0.00 | 76 | 1016.1 |
| 20260830040139 | 68 | 65 | 0.0 | 1.0 | 0.00 | 0.00 | 0.00 | 75 | 1016.1 |
| 20260830035124 | 68 | 65 | 0.0 | 3.0 | 0.00 | 0.00 | 0.00 | 74 | 1016.0 |
| 20260830034131 | 68 | 178 | 0.0 | 3.0 | 0.00 | 0.00 | 0.00 | 74 | 1016.0 |